This demonstration page uses our WeatherBlox Daily Observations layout. Learn more.

Left ArrowRight Arrow

Hourly Observations for June 9, 2015

Temp ( °F °C ) Dew Point ( °F °C ) Humidity (%) Winds ( mph kmh ) Pressure ( in mb ) Visibility ( mi km ) Precip ( " mm )
12:53 am 00:53 Clear 69 20.6 50 10 51 51 NW 14 22 29.72 1007 10 16 0.00 0.00
1:14 am 01:14 Clear 70 21 46 8 43 43 N 16 26 29.68 1005 10 16 0.00 0.00
1:53 am 01:53 Clear 66 18.9 46 7.8 49 49 NNE 9 15 29.77 1008 10 16 0.00 0.00
2:53 am 02:53 Clear 63 17.2 44 6.7 50 50 E 8 13 29.82 1010 10 16 0.00 0.00
3:53 am 03:53 Clear 57 13.9 43 6.1 60 60 N 3 6 29.85 1011 10 16 0.00 0.00
4:53 am 04:53 Clear 55 12.8 44 6.7 67 67 NNW 7 11 29.88 1012 10 16 0.00 0.00
5:53 am 05:53 Sunny 55 12.8 42 5.6 62 62 Calm 29.89 1012 10 16 0.00 0.00
6:53 am 06:53 Sunny 60 15.6 45 7.2 58 58 SE 5 7 29.90 1013 10 16 0.00 0.00
7:53 am 07:53 Sunny 64 17.8 44 6.7 48 48 E 5 7 29.89 1012 10 16 0.00 0.00
8:53 am 08:53 Sunny 68 20 43 6.1 40 40 E 6 9 29.90 1013 10 16 0.00 0.00
9:53 am 09:53 Sunny 72 22.2 43 6.1 35 35 ESE 5 7 29.89 1012 10 16 0.00 0.00
10:53 am 10:53 Sunny 75 23.9 46 7.8 36 36 S 5 7 29.88 1012 10 16 0.00 0.00
11:53 am 11:53 Sunny N/A N/A N/A E 6 9 N/A N/A 0.00 0.00
12:49 pm 12:49 Mostly Sunny N/A N/A N/A Calm N/A 10 16 0.00 0.00
12:53 pm 12:53 Sunny N/A N/A N/A Calm N/A 10 16 0.00 0.00
1:53 pm 13:53 Sunny N/A N/A N/A undefined N/A N/A 10 16 0.00 0.00
2:53 pm 14:53 Sunny 81 27.2 48 8.9 32 32 E 10 17 29.81 1010 10 16 0.00 0.00
3:53 pm 15:53 Sunny 83 28.3 49 9.4 31 31 E 14 22 29.78 1009 10 16 0.00 0.00
4:53 pm 16:53 Sunny 84 28.9 52 11.1 33 33 E 16 26 29.76 1008 10 16 0.00 0.00
5:53 pm 17:53 Sunny 84 28.9 52 11.1 33 33 E 15 24 29.74 1007 10 16 0.00 0.00
6:53 pm 18:53 Sunny 82 27.8 51 10.6 34 34 E 21 33 29.73 1007 10 16 0.00 0.00
7:53 pm 19:53 Sunny 79 26.1 50 10 36 36 E 18 30 29.72 1006 10 16 0.00 0.00
8:53 pm 20:53 Sunny 76 24.4 50 10 40 40 E 18 30 29.72 1007 10 16 0.00 0.00
9:53 pm 21:53 Clear 73 22.8 50 10 44 44 E 17 28 29.74 1007 10 16 0.00 0.00
10:53 pm 22:53 Mostly Clear 70 21.1 49 9.4 47 47 E 15 24 29.75 1008 10 16 0.00 0.00
11:05 pm 23:05 Mostly Clear with Nearby Thunderstorms 69 20.6 49 9.4 49 49 E 14 22 29.68 1005 10 16 0.00 0.00
11:20 pm 23:20 Mostly Clear 69 20.6 48 8.9 47 47 E 17 28 29.68 1005 10 16 0.00 0.00
11:53 pm 23:53 Partly Cloudy 68 20 48 8.9 49 49 E 20 31 29.68 1005 10 16 0.00 0.03

Powered by AerisWeather